[Iaude] MPEC F99: 2017 FD163 [a=47.40,e=0.37,i=13.4,H=6.9]

mpec at mpcdb1.cfa.harvard.edu mpec at mpcdb1.cfa.harvard.edu
Tue Mar 26 21:51:17 EDT 2019


M.P.E.C. 2019-F99                                Issued 2019 Mar. 27, 01:48 UT
 
     The Minor Planet Electronic Circulars contain information on unusual
         minor planets and routine data on comets.  They are published
    on behalf of Division F of the International Astronomical Union by the
          Minor Planet Center, Smithsonian Astrophysical Observatory,
                          Cambridge, MA 02138, U.S.A.

             Prepared using the Tamkin Foundation Computer Network

                              MPC at CFA.HARVARD.EDU
            URL https://www.minorplanetcenter.net/    ISSN 1523-6714


                                  2017 FD163
 
Observations:
     K17FG3D*.C2017 03 25.09180 10 42 24.224+03 36 51.83         24.6 rcEF099807
     K17FG3D .C2017 03 25.18432 10 42 23.929+03 36 53.90         24.7 rcEF099807
     K17FG3D .C2017 03 26.17398 10 42 21.010+03 37 12.20         24.6 rcEF099807
     K17FG3D  C2017 05 20.22178 10 40 43.577+03 48 53.68               VEF099G37
     K17FG3D  C2018 03 11.10997 10 45 13.401+03 10 49.18               cEF099304
     K17FG3D  C2018 03 11.17002 10 45 13.201+03 10 49.93         24.6 rcEF099304
     K17FG3D  C2018 03 11.24009 10 45 12.974+03 10 51.54               cEF099304
     K17FG3D  C2018 03 12.14828 10 45 09.943+03 11 09.38               cEF099304
     K17FG3D  C2018 03 12.22608 10 45 09.684+03 11 10.93               cEF099304
     K17FG3D  C2018 05 15.18273 10 42 49.088+03 27 05.60               VEF099G37
     K17FG3D  C2018 05 15.19010 10 42 49.084+03 27 05.57               VEF099G37
     K17FG3D  C2018 05 15.24396 10 42 49.044+03 27 06.02               VEF099G37
     K17FG3D  C2018 05 15.25138 10 42 49.036+03 27 06.12               VEF099G37
 
Observer details:
304 Las Campanas Observatory.  Observer C. A. Trujillo.  6.5-m Magellan-Baade
    telescope + CCD.
807 Cerro Tololo Observatory, La Serena.  Observers C. A. Trujillo,
    S. S. Sheppard.  4.0-m CTIO reflector + CCD.
G37 Lowell Observatory-Discovery Channel Telescope.  Observer
    C. A. Trujillo.  4-m Discovery Channel Telescope + CCD.
 
Orbital elements:
2017 FD163
Epoch 2019 Apr. 27.0 TT = JDT 2458600.5                 MPC
M 130.03785              (2000.0)            P               Q
n   0.00302050     Peri.   45.35200     +0.97734851     -0.15997953
a  47.3969092      Node   323.19187     +0.05669897     +0.82866403
e   0.3698184      Incl.   13.37075     +0.20389977     +0.53639768
P 326              H    6.9           G   0.15           U   4
Residuals in seconds of arc
170325 807  0.0   0.2-    180311 304  0.3+  0.3-    180515 G37  0.0   0.1-
170325 807  0.2-  0.2+    180311 304  0.4+  0.1-    180515 G37  0.0   0.0
170326 807  0.3+  0.2+    180312 304  0.5-  0.3+    180515 G37  0.1-  0.0
170520 G37  0.1-  0.2-    180312 304  0.5-  0.3+
180311 304  0.3+  0.1+    180515 G37  0.0   0.0

Ephemeris:
2017 FD163               a,e,i = 47.40, 0.37, 13                 q = 29.869
Date    TT    R. A. (2000) Decl.     Delta      r     Elong.  Phase     V
2019 02 25    10 48 04.2 +02 44 52  60.3588 61.3391   172.1     0.1    24.8
...
2019 03 12    10 47 14.5 +02 49 36  60.3665 61.3456   170.2     0.2    24.8
...
2019 03 20    10 46 48.8 +02 52 11  60.3982 61.3491   162.6     0.3    24.8
...
2019 03 26    10 46 30.4 +02 54 04  60.4341 61.3517   156.7     0.4    24.8
2019 03 27    10 46 27.4 +02 54 23  60.4411 61.3521   155.8     0.4    24.8
2019 03 28    10 46 24.4 +02 54 42  60.4483 61.3525   154.8     0.4    24.8
...
2019 04 03    10 46 07.3 +02 56 31  60.4974 61.3551   148.9     0.5    24.8
...
2019 04 11    10 45 46.5 +02 58 50  60.5771 61.3586   141.0     0.6    24.9
...
2019 04 26    10 45 14.9 +03 02 34  60.7649 61.3651   126.2     0.8    24.9

A. U. Tomatic                (C) Copyright 2019 MPC           M.P.E.C. 2019-F99



More information about the Iaude mailing list